TimeEST,TemperatureF,Dew PointF,Humidity,Sea Level PressureIn,VisibilityMPH,Wind Direction,Wind SpeedMPH,Gust SpeedMPH,PrecipitationIn,Events,Conditions,WindDirDegrees,DateUTC
12:15 AM,-11.2,-16.6,77,29.92,2.0,North,8.1,-,N/A,,Overcast,350,2014-01-03 05:15:00
12:35 AM,-11.2,-11.2,100,29.91,1.5,North,4.6,-,N/A,,Overcast,350,2014-01-03 05:35:00
12:55 AM,-11.2,-16.6,77,29.90,1.5,North,6.9,-,N/A,,Overcast,360,2014-01-03 05:55:00
1:15 AM,-11.2,-11.2,100,29.90,1.5,North,4.6,-,N/A,,Overcast,350,2014-01-03 06:15:00
1:35 AM,-11.2,-16.6,77,29.89,2.0,North,5.8,-,N/A,,Overcast,350,2014-01-03 06:35:00
1:55 AM,-11.2,-11.2,100,29.91,2.0,NNW,4.6,-,N/A,,Overcast,330,2014-01-03 06:55:00
2:15 AM,-11.2,-18.4,70,29.90,2.0,NNW,6.9,-,N/A,,Overcast,340,2014-01-03 07:15:00
2:35 AM,-9.4,-9.4,100,29.89,1.8,Calm,Calm,-,N/A,,Overcast,0,2014-01-03 07:35:00
2:55 AM,-9.4,-18.4,65,29.88,1.8,North,4.6,-,N/A,,Overcast,350,2014-01-03 07:55:00
3:15 AM,-9.4,-9.4,100,29.88,2.5,Calm,Calm,-,N/A,,Overcast,0,2014-01-03 08:15:00
3:35 AM,-9.4,-18.4,65,29.88,2.0,North,3.5,-,N/A,,Overcast,350,2014-01-03 08:35:00
3:55 AM,-9.4,-14.8,77,29.88,2.5,NNW,3.5,-,N/A,,Overcast,340,2014-01-03 08:55:00
4:15 AM,-9.4,-14.8,77,29.89,3.0,NNW,4.6,-,N/A,,Overcast,330,2014-01-03 09:15:00
4:35 AM,-9.4,-14.8,77,29.89,4.0,NNW,5.8,-,N/A,,Overcast,330,2014-01-03 09:35:00
4:55 AM,-9.4,-14.8,77,29.90,4.0,NNW,4.6,-,N/A,,Overcast,330,2014-01-03 09:55:00
5:15 AM,-9.4,-13.0,84,29.90,2.5,NNW,5.8,-,N/A,,Overcast,330,2014-01-03 10:15:00
5:35 AM,-9.4,-13.0,84,29.90,2.5,NW,5.8,-,N/A,,Overcast,320,2014-01-03 10:35:00
5:55 AM,-9.4,-13.0,84,29.91,2.5,NW,5.8,-,N/A,,Overcast,310,2014-01-03 10:55:00
6:15 AM,-9.4,-14.8,77,29.92,2.5,NW,6.9,-,N/A,,Overcast,320,2014-01-03 11:15:00
6:35 AM,-9.4,-11.2,92,29.94,4.0,NW,4.6,-,N/A,,Overcast,320,2014-01-03 11:35:00
6:55 AM,-9.4,-16.6,71,29.95,3.0,NW,6.9,-,N/A,,Overcast,310,2014-01-03 11:55:00
7:15 AM,-9.4,-9.4,100,29.97,3.0,NNW,6.9,-,N/A,,Overcast,340,2014-01-03 12:15:00
7:35 AM,-9.4,-14.8,77,29.97,2.0,NW,6.9,-,N/A,,Overcast,320,2014-01-03 12:35:00
7:55 AM,-9.4,-13.0,84,29.98,1.8,NW,5.8,-,N/A,,Overcast,320,2014-01-03 12:55:00
8:15 AM,-9.4,-16.6,71,30.00,2.0,NW,9.2,-,N/A,,Overcast,320,2014-01-03 13:15:00
8:35 AM,-9.4,-11.2,92,30.01,4.0,NW,6.9,-,N/A,,Overcast,320,2014-01-03 13:35:00
8:55 AM,-7.6,-16.6,65,30.02,3.0,NW,9.2,-,N/A,,Overcast,320,2014-01-03 13:55:00
9:15 AM,-7.6,-14.8,71,30.03,2.0,NW,5.8,-,N/A,,Overcast,320,2014-01-03 14:15:00
9:35 AM,-7.6,-16.6,65,30.04,4.0,NW,11.5,-,N/A,,Overcast,320,2014-01-03 14:35:00
9:55 AM,-7.6,-14.8,71,30.05,5.0,WNW,10.4,16.1,N/A,,Overcast,300,2014-01-03 14:55:00
10:15 AM,-7.6,-16.6,65,30.06,3.0,NW,15.0,19.6,N/A,,Overcast,310,2014-01-03 15:15:00
10:35 AM,-7.6,-18.4,59,30.08,4.0,WNW,11.5,19.6,N/A,,Overcast,300,2014-01-03 15:35:00
10:55 AM,-7.6,-14.8,71,30.07,3.0,NW,13.8,19.6,N/A,,Overcast,310,2014-01-03 15:55:00
11:15 AM,-5.8,-16.6,60,30.08,5.0,WNW,15.0,19.6,N/A,,Scattered Clouds,300,2014-01-03 16:15:00
11:35 AM,-7.6,-18.4,59,30.08,5.0,NW,13.8,21.9,N/A,,Clear,310,2014-01-03 16:35:00
11:55 AM,-5.8,-20.2,50,30.09,9.0,NW,16.1,19.6,N/A,,Clear,320,2014-01-03 16:55:00
12:15 PM,-5.8,-16.6,60,30.10,9.0,NNW,13.8,19.6,N/A,,Clear,340,2014-01-03 17:15:00
12:35 PM,-5.8,-18.4,55,30.11,10.0,NW,13.8,20.7,N/A,,Clear,320,2014-01-03 17:35:00
12:55 PM,-5.8,-18.4,55,30.12,10.0,NNW,12.7,17.3,N/A,,Clear,330,2014-01-03 17:55:00
1:15 PM,-5.8,-18.4,55,30.13,5.0,North,12.7,17.3,N/A,,Clear,350,2014-01-03 18:15:00
1:35 PM,-4.0,-18.4,50,30.14,10.0,North,10.4,19.6,N/A,,Clear,350,2014-01-03 18:35:00
1:55 PM,-2.2,-18.4,46,30.15,10.0,NW,13.8,21.9,N/A,,Clear,310,2014-01-03 18:55:00
2:15 PM,-2.2,-20.2,42,30.17,10.0,North,9.2,-,N/A,,Clear,350,2014-01-03 19:15:00
2:35 PM,-2.2,-22.0,39,30.18,10.0,NW,11.5,17.3,N/A,,Clear,320,2014-01-03 19:35:00
2:55 PM,-2.2,-20.2,42,30.19,10.0,NW,10.4,18.4,N/A,,Clear,320,2014-01-03 19:55:00
3:15 PM,-2.2,-20.2,42,30.20,10.0,NNW,8.1,-,N/A,,Clear,330,2014-01-03 20:15:00
3:35 PM,-2.2,-20.2,42,30.21,10.0,NW,4.6,-,N/A,,Clear,320,2014-01-03 20:35:00
3:55 PM,-2.2,-22.0,39,30.22,10.0,North,6.9,-,N/A,,Clear,10,2014-01-03 20:55:00
4:15 PM,-4.0,-22.0,42,30.23,10.0,North,9.2,-,N/A,,Clear,360,2014-01-03 21:15:00
4:35 PM,-5.8,-16.6,60,30.25,10.0,NNE,6.9,-,N/A,,Clear,30,2014-01-03 21:35:00
4:55 PM,-5.8,-22.0,46,30.26,10.0,North,5.8,-,N/A,,Clear,10,2014-01-03 21:55:00
5:15 PM,-7.6,-14.8,71,30.27,10.0,North,3.5,-,N/A,,Clear,10,2014-01-03 22:15:00
5:35 PM,-7.6,-20.2,54,30.28,10.0,NNE,5.8,-,N/A,,Clear,20,2014-01-03 22:35:00
5:55 PM,-7.6,-20.2,54,30.29,10.0,NNW,5.8,-,N/A,,Clear,330,2014-01-03 22:55:00
6:15 PM,-7.6,-13.0,77,30.30,10.0,Calm,Calm,-,N/A,,Clear,0,2014-01-03 23:15:00
6:35 PM,-9.4,-25.6,45,30.31,10.0,Calm,Calm,-,N/A,,Clear,0,2014-01-03 23:35:00
6:55 PM,-7.6,-79.6,4,30.33,10.0,NNW,3.5,-,N/A,,Clear,340,2014-01-03 23:55:00
7:15 PM,-11.2,-9999,N/A,30.32,10.0,Calm,Calm,-,N/A,,Clear,0,2014-01-04 00:15:00
7:35 PM,-11.2,-9999,N/A,30.32,10.0,SSE,3.5,-,N/A,,Clear,150,2014-01-04 00:35:00
7:55 PM,-11.2,-9999,N/A,30.32,10.0,SSE,3.5,-,N/A,,Clear,160,2014-01-04 00:55:00
8:15 PM,-11.2,-27.4,45,30.34,10.0,South,5.8,-,N/A,,Clear,170,2014-01-04 01:15:00
8:35 PM,-11.2,-23.8,54,30.35,10.0,SE,4.6,-,N/A,,Clear,140,2014-01-04 01:35:00
8:55 PM,-14.8,-23.8,64,30.36,10.0,SE,5.8,-,N/A,,Clear,140,2014-01-04 01:55:00
9:15 PM,-13.0,-20.2,70,30.36,10.0,SE,6.9,-,N/A,,Clear,140,2014-01-04 02:15:00
9:35 PM,-9999,-9999,N/A,30.35,10.0,ESE,6.9,-,N/A,,Clear,120,2014-01-04 02:35:00
9:55 PM,-13.0,-23.8,59,30.37,10.0,SE,4.6,-,N/A,,Clear,140,2014-01-04 02:55:00
10:15 PM,-13.0,-23.8,59,30.36,10.0,ESE,4.6,-,N/A,,Clear,110,2014-01-04 03:15:00
10:35 PM,-14.8,-25.6,58,30.36,10.0,SE,6.9,-,N/A,,Clear,130,2014-01-04 03:35:00
10:55 PM,-14.8,-23.8,64,30.36,10.0,SE,5.8,-,N/A,,Clear,140,2014-01-04 03:55:00
11:15 PM,-14.8,-25.6,58,30.37,10.0,SE,4.6,-,N/A,,Clear,130,2014-01-04 04:15:00
11:35 PM,-14.8,-23.8,64,30.37,10.0,ESE,6.9,-,N/A,,Clear,120,2014-01-04 04:35:00
11:55 PM,-14.8,-23.8,64,30.37,10.0,ESE,3.5,-,N/A,,Clear,120,2014-01-04 04:55:00